Погода в Хутаге

Монголия     49°25′26″N   102°35′52″E
темп.,
°C
ветер,
м/с
пор.,
м/с
влажн.,
%
обл.,
%
осадки,
мм/ч
давл.,
гПа
погр.,
м
30 июня, чт
чт3023:00+15сз4691100 3.4 1005111
02:00+15сз2289100 7.4 100415
05:00+14зюз119246 0.1 100611
08:00+17зсз118031 0.1 1006340
11:00+22зюз12577 0.0 10041021
14:00+26юз23405 0.0 10021935
17:00+28зюз44310 0.0 10001955
20:00+25юз22355 0.0 100012
1 июля, пт
пт123:00+19зсз11385 0.0 100311
02:00+16юв01465 0.0 100411
05:00+14ссв11580 0.0 100511
08:00+19в11510 0.0 1005202
11:00+25ююв22435 0.0 1003698
14:00+29ю12260 0.0 10002098
17:00+31юв13203 0.0 9983206
20:00+26вюв33370 0.0 99845
2 июля, сб
сб223:00+20ююв11430 0.0 99911
02:00+17всв11554 0.0 99911
05:00+16св11635 0.0 99911
08:00+21ююв225156 0.0 999204
11:00+27ююз34366 0.1 9971036
14:00+30зюз3331100 0.1 9952015
17:00+31зсз742615 0.0 9942502
20:00+18ююз3475100 0.4 99890
3 июля, вс
вс323:00+16зсз1175100 0.1 100111
02:00+15ююз117999 0.1 100010
05:00+13св1185100 0.0 100110
08:00+16с3383100 0.7 1002317
11:00+16с448299 0.8 1003582
14:00+20св3664100 3.1 10001252
17:00+18в5767100 0.6 998819
20:00+13юв4599100 26.4 1002253
4 июля, пн
пн423:00+12ююз339699 1.6 100280
02:00+10юз11936 1.6 100210
05:00+11юз2291100 0.1 100287
08:00+11з367591 0.2 1003866
11:00+9з3583100 0.4 1005537
14:00+9сз2590100 1.9 1006455
17:00+10зсз248593 0.4 1007344
20:00+12ююв1179100 0.5 100689